[[{"header":{"parameterUnit":"m.s-1","parameterCategory":1,"la1":30.2991,"la2":30.254,"lo1":-89.0895,"lo2":-89.0444,"dy":0.0017,"dx":0.0017,"nx":28,"ny":28,"refTime":"2026-02-08T03:00:00:Z","depth":0,"parameterNumber":2,"parameterNumberName":"U-component_of_WINDS"},"data":[0,0,0,0,0,0,0,0,0,0,0,0,0,0,0,0,0,0,0,0,0,0,0,0,0,0,0,0,0,0,0,0,0,0,0,0,0,0,0,0,0,0,0,0,0,0,0,0,0,0,0,0,0,0,0,0,0,0,1.741,1.7411,0,1.7498,1.7499,1.75,1.7478,1.7476,1.7475,1.7473,1.7564,1.7568,1.7572,0,0,0,0,0,0,0,0,0,0,0,0,0,1.7228,1.7232,1.741,1.7411,1.7413,1.7497,1.7499,1.75,1.7478,1.7476,1.7474,1.7472,1.7563,1.7568,1.7572,0,0,0,0,0,0,0,0,0,0,0,0,0,1.7311,1.7233,1.741,1.7412,1.7413,1.7497,1.7499,1.75,1.7479,1.7476,1.7474,1.7471,1.7561,1.7567,1.7573,1.7661,0,0,1.7591,1.7594,0,0,0,0,0,0,0,0,1.7306,1.7317,1.7411,1.7412,1.7413,1.7474,1.7468,1.7554,1.7479,1.7454,1.7473,1.747,1.7536,1.7544,1.7566,1.7665,1.7669,1.7592,1.7596,1.7598,1.76,0,0,0,0,0,0,0,1.73,1.7313,1.7445,1.7412,1.7414,1.7409,1.7418,1.7484,1.7509,1.7456,1.7455,1.7465,1.7537,1.7561,1.7568,1.7671,1.7592,1.7597,1.7601,1.7603,1.7849,1.7851,0,0,0,0,0,0,1.7293,1.7309,1.7442,1.7447,1.7352,1.7415,1.7425,1.7457,1.7508,1.7513,1.7467,1.7464,1.7552,1.7561,1.7571,1.7679,1.7598,1.7604,1.7607,1.7846,1.7849,1.7852,0,0,0,0,0,0,1.7289,1.7305,1.7439,1.7378,1.7394,1.7421,1.7457,1.746,1.7484,1.7516,1.7521,1.7487,1.755,1.7563,1.7639,1.7682,1.7606,1.7612,1.7842,1.7847,1.7851,1.7895,0,0,0,0,0,0,1.7284,1.7304,1.7337,1.7379,1.7398,1.7504,1.746,1.7464,1.7494,1.7491,1.7536,1.7541,1.7549,1.7631,1.7645,1.7689,1.7617,1.7839,1.7844,1.7849,1.789,1.7901,1.791,0,0,0,0,0,1.7278,1.7346,1.7339,1.7355,1.744,1.7507,1.7518,1.7525,1.7498,1.7532,1.7553,1.7539,1.7675,1.7638,1.7655,1.7701,1.7836,1.7843,1.7849,1.7886,1.7898,1.7909,0,0,0,0,0,0,1.7309,1.7351,1.7344,1.7428,1.7464,1.7503,1.7546,1.7538,1.7583,1.7578,1.7586,1.7596,1.7675,1.7695,1.7654,1.779,1.7752,1.7762,1.7774,1.7786,1.7796,1.779,1.7622,0,0,0,0,0,1.7325,1.7376,1.741,1.7481,1.75,1.752,1.7549,1.7552,1.759,1.7605,1.7632,1.767,1.7721,1.7755,1.7803,1.7893,1.7903,1.7933,1.7942,1.795,1.7959,1.801,1.8024,1.7874,1.7874,1.7874,0,0,1.736,1.739,1.7421,1.7488,1.7516,1.757,1.7533,1.759,1.763,1.7614,1.7688,1.7709,1.7752,1.7836,1.7874,1.7856,1.8003,1.7959,1.7965,1.797,1.8018,1.8033,1.8045,1.7878,1.7878,1.7877,0,0,1.7451,1.7478,1.754,1.757,1.7613,1.7626,1.7641,1.7682,1.7695,1.777,1.7759,1.7807,1.7895,1.7927,1.7954,1.8059,1.8049,1.8074,1.8126,1.8175,1.8187,1.8197,1.8236,1.825,1.8083,1.8083,1.8083,0,1.7489,1.7568,1.7574,1.7633,1.7663,1.7651,1.7715,1.7743,1.7801,1.7823,1.7801,1.7912,1.794,1.8032,1.8057,1.8079,1.8098,1.807,1.8184,1.8195,1.8205,1.8242,1.8257,1.8086,1.8086,1.8085,1.8085,0,1.7614,1.7669,1.7714,1.777,1.7805,1.7866,1.7882,1.7918,1.7918,1.7933,1.801,1.8044,1.81,1.8121,1.8122,1.8214,1.8202,1.8182,1.8144,1.8222,1.8257,1.8272,1.809,1.8089,1.8088,1.8088,0,0,1.7727,1.7785,1.7802,1.7828,1.7875,1.7918,1.798,1.8034,1.8065,1.8105,1.8158,1.8233,1.8216,1.8247,1.8251,1.8294,1.8377,1.827,1.8271,1.829,1.8483,1.8498,1.8514,1.837,1.8373,1.8375,1.848,0,1.7823,1.793,1.7938,1.8035,1.8087,1.8077,1.8131,1.8166,1.8183,1.823,1.8249,1.8303,1.8275,1.8294,1.8336,1.8358,1.8416,1.835,1.8421,1.8423,1.8412,1.8533,1.8549,1.8646,1.8493,1.8496,1.8497,0,1.795,1.7994,1.8097,1.8138,1.816,1.8208,1.826,1.8304,1.8345,1.8354,1.839,1.8388,1.8453,1.8411,1.8501,1.8456,1.8485,1.8501,1.8505,1.8513,1.8466,1.8545,1.8677,1.8692,1.8519,1.8517,1.8516,0,1.8024,1.8109,1.8182,1.8204,1.8254,1.8288,1.8311,1.8349,1.8382,1.8427,1.8449,1.8501,1.853,1.8571,1.8584,1.8552,1.8674,1.8633,1.8685,1.8685,1.8712,1.871,1.8851,1.8728,1.8728,1.8728,1.8727,0,1.8131,1.8195,1.8216,1.8261,1.8333,1.8341,1.8412,1.8432,1.8467,1.8517,1.8511,1.8558,1.8571,1.8621,1.8631,1.8705,1.8718,1.8728,1.8731,1.873,1.8729,1.875,1.8744,1.8732,1.8731,1.873,1.8729,0,1.8227,1.8243,1.8322,1.8363,1.8375,1.8426,1.8462,1.8506,1.8521,1.8585,1.86,1.8626,1.8684,1.8701,1.8771,1.8778,1.8865,1.886,1.8851,1.8852,1.8903,1.8899,1.9064,1.9087,1.8948,1.8949,1.895,0,1.8295,1.8344,1.839,1.8423,1.8447,1.8499,1.8533,1.8543,1.8579,1.863,1.8668,1.8726,1.8772,1.8867,1.8892,1.8946,1.8944,1.8998,1.8952,1.895,1.8947,1.8944,1.895,1.9007,1.9009,1.901,1.9011,0,1.8415,1.8421,1.8469,1.8521,1.8561,1.8603,1.8642,1.867,1.8686,1.8727,1.8786,1.8822,1.8894,1.8952,1.9007,1.9031,1.9025,1.9025,1.904,1.904,1.9034,1.904,1.8877,1.9021,1.902,1.9019,1.9019,1.9018,1.85,1.8544,1.8583,1.8638,1.8669,1.8706,1.875,1.8772,1.8821,1.8881,1.8884,1.8949,1.899,1.9063,1.909,1.9142,1.9126,1.9148,1.9154,1.9159,1.9164,1.9024,1.9152,1.9152,1.9152,1.9151,1.9151,0,1.8621,1.8646,1.8696,1.8752,1.8796,1.8784,1.8828,1.8866,1.8923,1.8961,1.9007,1.9077,1.9133,1.9163,1.922,1.9256,1.9254,1.927,1.9269,1.9275,1.9174,1.9156,1.9271,1.9271,1.9271,1.9271,1.9271,1.9271,1.8689,1.8763,1.8774,1.8863,1.8888,1.8952,1.8978,1.9013,1.9044,1.9122,1.9168,1.9187,1.9223,1.9282,1.9334,1.9342,1.9363,1.9382,1.9388,1.9294,1.9282,1.927,1.9253,1.9386,1.9386,1.9484,1.9485,1.9485]},{"header":{"parameterUnit":"m.s-1","parameterCategory":1,"la1":30.2991,"la2":30.254,"lo1":-89.0895,"lo2":-89.0444,"dy":0.0017,"dx":0.0017,"nx":28,"ny":28,"refTime":"2026-02-08T03:00:00:Z","depth":0,"parameterNumber":3,"parameterNumberName":"V-component_of_WINDS"},"data":[0,0,0,0,0,0,0,0,0,0,0,0,0,0,0,0,0,0,0,0,0,0,0,0,0,0,0,0,0,0,0,0,0,0,0,0,0,0,0,0,0,0,0,0,0,0,0,0,0,0,0,0,0,0,0,0,0,0,0.3993,0.3993,0,0.4002,0.4002,0.4002,0.3981,0.398,0.398,0.3979,0.3988,0.3989,0.399,0,0,0,0,0,0,0,0,0,0,0,0,0,0.3956,0.3957,0.3993,0.3993,0.3993,0.4002,0.4002,0.4002,0.3981,0.398,0.3979,0.3979,0.3988,0.3989,0.399,0,0,0,0,0,0,0,0,0,0,0,0,0,0.397,0.3958,0.3993,0.3984,0.3983,0.4002,0.4002,0.4003,0.3981,0.398,0.3979,0.3978,0.3987,0.3989,0.399,0.4019,0,0,0.3994,0.3995,0,0,0,0,0,0,0,0,0.3969,0.3971,0.3985,0.3984,0.3983,0.3989,0.3993,0.4008,0.3981,0.3982,0.3979,0.3978,0.3989,0.399,0.3994,0.4019,0.402,0.3994,0.3995,0.3996,0.3996,0,0,0,0,0,0,0,0.3968,0.3971,0.3997,0.3985,0.3984,0.3979,0.398,0.3996,0.3991,0.3982,0.398,0.3982,0.3989,0.3993,0.3994,0.402,0.3994,0.3995,0.3996,0.3997,0.407,0.4072,0,0,0,0,0,0,0.3968,0.397,0.3996,0.3997,0.3974,0.398,0.3981,0.3988,0.3991,0.399,0.3982,0.3981,0.3991,0.3993,0.3995,0.403,0.3996,0.3997,0.3998,0.4069,0.4071,0.4072,0,0,0,0,0,0,0.3968,0.3971,0.3996,0.3983,0.3986,0.3982,0.399,0.3989,0.3994,0.3992,0.3991,0.3988,0.3991,0.3993,0.4013,0.403,0.3997,0.3999,0.4068,0.407,0.4071,0.41,0,0,0,0,0,0,0.3967,0.3971,0.3982,0.3983,0.3987,0.4014,0.3991,0.399,0.3996,0.3994,0.3996,0.3996,0.399,0.4012,0.4015,0.4031,0.4,0.4066,0.4069,0.4071,0.4098,0.4102,0.4107,0,0,0,0,0,0.3966,0.3989,0.3982,0.3986,0.4,0.4015,0.4017,0.401,0.3997,0.4009,0.4007,0.3996,0.4027,0.4014,0.4017,0.4034,0.4065,0.4068,0.4071,0.4096,0.4102,0.4107,0,0,0,0,0,0,0.3988,0.3989,0.3982,0.4006,0.4011,0.4012,0.4025,0.4016,0.4025,0.4022,0.4013,0.4014,0.4037,0.4037,0.4022,0.4063,0.4044,0.4048,0.4062,0.4068,0.4072,0.4072,0.4001,0,0,0,0,0,0.3996,0.4009,0.4008,0.403,0.4033,0.4029,0.4035,0.403,0.4034,0.4036,0.4036,0.4041,0.4052,0.406,0.407,0.4097,0.4098,0.4111,0.4115,0.4119,0.4123,0.4139,0.4145,0.4081,0.4081,0.4081,0,0,0.4013,0.4015,0.4023,0.4035,0.4038,0.4052,0.4031,0.4045,0.4056,0.4038,0.4058,0.4059,0.4063,0.4088,0.4099,0.4089,0.414,0.4122,0.4125,0.4127,0.4142,0.4148,0.4154,0.4082,0.4082,0.4082,0,0,0.405,0.4052,0.4071,0.4075,0.4081,0.4078,0.4082,0.4085,0.4085,0.4105,0.4092,0.4104,0.4123,0.4128,0.4132,0.4173,0.4163,0.4176,0.42,0.4216,0.4221,0.4226,0.4242,0.4247,0.4179,0.4179,0.4179,0,0.407,0.409,0.4082,0.4099,0.4105,0.409,0.411,0.4114,0.4122,0.4127,0.4116,0.414,0.4142,0.4169,0.4179,0.4183,0.4188,0.4176,0.4221,0.4226,0.423,0.4245,0.4251,0.4181,0.4181,0.4181,0.4181,0,0.4115,0.4129,0.4144,0.4153,0.4161,0.4179,0.4174,0.4183,0.4176,0.4175,0.4196,0.4198,0.4209,0.4215,0.4208,0.4241,0.4235,0.4223,0.4204,0.4238,0.4252,0.4257,0.4183,0.4183,0.4182,0.4182,0,0,0.4167,0.4172,0.4178,0.4183,0.4188,0.4199,0.4217,0.4228,0.4236,0.4242,0.4257,0.4274,0.4264,0.4269,0.4263,0.4277,0.4311,0.4264,0.4264,0.4274,0.4348,0.4359,0.4365,0.4304,0.4305,0.4306,0.4349,0,0.4205,0.4236,0.423,0.426,0.4274,0.4261,0.4276,0.4281,0.428,0.4292,0.4291,0.4304,0.4288,0.4292,0.4305,0.4304,0.4326,0.4301,0.4319,0.432,0.432,0.4372,0.4383,0.4423,0.4354,0.4355,0.4355,0,0.4253,0.4263,0.4295,0.4299,0.4305,0.4319,0.433,0.4341,0.4346,0.4345,0.4352,0.4344,0.4362,0.4342,0.4367,0.4351,0.4358,0.4359,0.436,0.4362,0.4341,0.4377,0.4435,0.4442,0.4364,0.4363,0.4362,0,0.429,0.431,0.4332,0.4337,0.4342,0.4353,0.4355,0.436,0.4368,0.4377,0.4382,0.4393,0.4399,0.4408,0.4403,0.4389,0.443,0.441,0.443,0.4431,0.444,0.444,0.4501,0.4443,0.4443,0.4443,0.4443,0,0.4334,0.4354,0.4349,0.4363,0.4386,0.4379,0.4402,0.4403,0.4407,0.4421,0.441,0.4423,0.4416,0.4429,0.4425,0.4448,0.445,0.445,0.4449,0.4452,0.4452,0.4457,0.4455,0.4444,0.4444,0.4444,0.4443,0,0.4378,0.4376,0.4399,0.4403,0.4405,0.4422,0.4425,0.4438,0.4437,0.4455,0.4459,0.4457,0.4471,0.4468,0.4483,0.4481,0.451,0.4505,0.4508,0.4508,0.4529,0.4528,0.4597,0.4606,0.454,0.4541,0.4542,0,0.4407,0.4423,0.4429,0.4438,0.4442,0.4456,0.4464,0.4458,0.4467,0.4476,0.4488,0.4502,0.4513,0.4538,0.4538,0.455,0.4546,0.4569,0.4548,0.4551,0.4548,0.4548,0.455,0.4574,0.4575,0.4575,0.4576,0,0.4459,0.4457,0.447,0.4482,0.4493,0.4502,0.451,0.4518,0.4513,0.4523,0.4539,0.4548,0.4564,0.4579,0.4591,0.4593,0.4585,0.4583,0.4588,0.4592,0.4594,0.4595,0.4522,0.4581,0.4581,0.458,0.458,0.458,0.4497,0.4512,0.4519,0.4533,0.4539,0.4547,0.4561,0.4561,0.4574,0.4588,0.4584,0.4602,0.4608,0.4623,0.4628,0.4642,0.4633,0.4641,0.4643,0.4646,0.4649,0.4591,0.4644,0.4644,0.4644,0.4643,0.4643,0,0.455,0.4554,0.4568,0.458,0.4592,0.4583,0.4592,0.4602,0.4619,0.4626,0.4637,0.4656,0.467,0.4672,0.4685,0.4697,0.4693,0.47,0.47,0.4701,0.4655,0.465,0.4703,0.4703,0.4703,0.4703,0.4703,0.4703,0.4579,0.4603,0.4602,0.4629,0.4633,0.4651,0.4657,0.4665,0.4671,0.4693,0.4705,0.4706,0.4711,0.4725,0.4738,0.4738,0.4745,0.4754,0.4753,0.471,0.4704,0.4699,0.4693,0.4755,0.4755,0.4798,0.4798,0.4798]}]]